STARLINK-1369 (45541 NORAD) Tracking and Keplerian Element Data

This shows tracking and keplerian element data for the satellite.

Feedback or suggestion? Click here.




ElementValue
Catalog45541
NameSTARLINK-1369
Epoch Orbit1244
Epoch Day190.16667824
Epoch Year2020
RAAN41.5599
Inclination53.0004
Eccentricity0.0002058
Argument of Perigee89.0275
Mean Anonmoly350.6414
Mean Motion15.05599176
Decay Rate-0.00016163
L11 45541U 20025L 20190.16667824 -.00016163 00000-0 -10920-2 0 9993
L22 45541 53.0004 41.5599 0002058 89.0275 350.6414 15.05599176 12444

Live tracking and technical data element details for STARLINK-1369 (NORAD 45541). STARLINK-1369 can be tracked NOW for your location showing map with azimuth and elevation plus other details from your city location.

Track the satellite on the map from your city or location and see movement details for azimuth, elevation, latitude, longitude, range, height, and movement on the map or in text.







IsCatalogInMostPopularTable: catalog: 45541, numindb: 13
Update: records affected: 1



GetName: 45541 STARLINK-1369

Hit Count: updated at: Fri, 10 Jul 2020 03:06:19 GMT